GEFSSE_con_prob3kmehi_234.txt.gz
EHI
0 0 0 0 0 0 0 0 0 0 0 1 0 0 0 0 0 1 2 2 1 1 2 2 3 2 1 2 2 1 2 2 1 1 0 0 0 1 2 2 1 0 0
0 0 0 0 0 0 0 0 0 0 1 1 1 0 0 0 0 1 2 2 1 0 1 1 2 1 1 1 1 0 1 1 1 1 1 0 0 1 1 1 0 0 1
0 0 0 0 0 0 0 0 0 0 1 2 1 0 0 0 0 0 1 1 0 0 0 1 1 2 2 1 0 0 0 0 1 2 2 1 0 0 0 0 0 1 2
0 0 0 0 0 0 0 0 0 0 1 1 1 0 0 0 0 0 0 0 0 0 0 0 1 2 2 1 0 0 0 0 0 1 1 1 0 0 0 0 0 1 2
0 0 0 0 0 0 0 0 0 0 0 0 0 0 0 0 0 0 0 0 0 0 0 0 1 2 2 1 0 0 0 0 0 0 0 0 0 0 0 0 0 0 1
0 0 0 0 0 0 0 0 0 0 0 0 0 0 0 0 0 0 0 0 0 0 0 0 1 2 1 0 0 0 0 0 0 0 0 0 0 0 0 0 0 0 0
0 0 0 0 0 0 0 0 0 0 0 0 0 0 0 0 0 0 0 0 0 0 0 0 1 1 1 0 0 0 0 0 0 0 0 0 0 0 0 0 1 1 0
0 0 0 0 1 1 0 0 0 0 0 0 0 0 0 0 0 0 0 0 1 1 1 1 1 1 1 1 1 1 1 1 0 0 0 0 0 0 0 0 1 2 1
0 0 0 0 1 1 1 1 1 0 0 0 0 0 0 1 1 1 1 1 2 2 2 2 2 2 2 3 3 3 2 2 1 0 0 0 0 0 0 0 1 2 3
0 0 0 0 1 1 1 1 2 1 1 1 0 0 1 1 2 2 1 1 2 3 3 3 3 3 3 4 4 4 3 3 1 0 0 0 0 0 0 0 1 3 3
0 0 0 0 0 0 0 1 2 2 1 1 1 1 1 1 2 2 1 1 3 3 3 3 3 3 3 3 4 3 3 3 2 1 1 1 0 0 0 0 2 3 3
1 0 0 0 0 0 0 0 1 1 0 0 0 0 1 1 2 2 2 2 3 3 3 3 3 3 3 3 3 3 3 3 3 3 3 4 2 1 1 0 1 2 3
2 1 0 0 0 0 0 0 0 1 1 1 1 1 1 2 3 3 3 3 3 3 3 3 3 3 3 3 3 3 3 3 3 4 5 5 4 3 2 0 0 1 2
2 1 0 0 0 1 1 0 1 2 2 2 2 2 3 3 3 3 3 2 2 2 2 3 3 3 3 4 3 3 3 3 3 3 4 4 4 3 2 0 0 1 2
1 1 0 0 1 2 2 1 2 3 3 2 2 3 3 3 3 3 3 2 2 3 3 3 3 3 4 4 3 3 3 3 2 2 3 3 3 3 2 1 1 2 3
0 0 1 2 3 3 3 2 2 2 1 1 1 2 3 3 3 3 3 3 3 3 3 2 3 3 4 3 2 2 2 1 1 1 1 2 3 3 4 3 2 2 3
0 1 2 4 5 4 3 3 2 1 0 1 2 2 2 2 2 3 3 3 3 2 1 1 2 3 2 1 1 0 0 0 0 0 0 1 1 2 4 4 2 1 2
2 3 4 4 3 3 3 3 3 1 0 1 2 2 1 1 1 1 2 2 1 1 0 0 1 2 1 1 1 1 0 0 0 1 1 1 1 2 3 3 2 1 1
5 5 5 4 2 1 2 3 3 2 1 0 1 1 0 0 0 0 1 1 0 0 0 1 2 1 1 1 2 2 1 1 1 2 2 2 2 2 2 3 3 2 1
6 6 6 5 2 1 1 2 3 3 2 1 0 0 0 0 1 1 0 1 1 0 0 1 1 1 0 1 2 2 1 2 3 3 3 3 3 2 2 3 4 4 3
7 7 6 5 4 1 1 2 3 3 1 1 1 0 0 1 2 2 2 2 2 1 1 1 0 0 0 0 1 1 1 2 3 4 4 3 1 1 1 2 3 4 3
9 8 7 6 5 3 2 2 3 2 0 0 0 0 0 1 3 3 4 4 4 4 3 2 2 1 1 0 0 0 0 1 2 3 4 3 1 0 0 1 1 2 2
10 9 8 8 6 4 3 3 3 2 1 0 0 0 0 1 2 4 5 6 6 6 5 5 5 4 3 1 1 1 0 0 1 1 2 2 1 0 0 0 0 0 1
8 8 9 11 11 8 6 4 2 2 1 0 0 0 1 2 3 5 7 8 8 7 6 6 6 6 5 3 2 2 2 1 1 2 2 2 1 0 0 0 0 1 2
4 5 8 13 15 13 10 7 4 2 1 1 1 1 3 4 4 4 6 8 8 7 7 7 8 8 7 5 3 3 3 3 3 3 3 4 3 2 1 1 1 1 2
2 3 7 12 16 15 12 9 6 3 2 3 4 3 4 5 5 4 5 7 8 7 8 10 10 9 7 6 4 4 4 4 4 3 4 5 5 4 3 2 2 2 3

GEFSSE_con_prob3kmehi_240.txt.gz
EHI
1 2 3 2 0 0 0 0 1 2 2 1 0 0 1 2 4 3 2 2 3 4 5 7 7 6 7 5 4 5 5 4 3 2 1 3 5 5 3 2 1 0 0
1 2 3 2 0 0 0 0 0 1 1 0 0 0 0 1 1 1 1 1 2 3 3 5 6 5 4 3 3 5 5 4 3 2 1 3 4 5 4 2 1 0 0
1 1 2 1 0 0 0 0 0 0 0 0 0 0 0 0 0 0 0 0 1 1 1 3 4 4 3 2 4 5 4 3 3 2 1 2 3 4 4 3 2 2 1
1 1 2 2 1 1 0 0 0 0 0 0 0 0 0 0 1 1 0 0 0 0 0 1 3 3 2 2 4 5 4 3 3 2 1 1 1 2 3 2 2 3 2
1 2 4 4 3 2 1 0 0 0 0 0 0 0 1 1 1 1 0 0 0 0 0 1 2 2 1 1 3 4 3 3 3 3 1 0 0 1 1 1 1 3 3
3 4 5 5 4 2 1 0 0 0 0 0 0 0 0 0 1 1 0 0 0 0 0 0 1 2 1 1 2 3 3 4 5 4 3 1 1 2 2 1 0 1 1
3 6 8 7 5 3 1 0 0 0 0 0 0 0 0 0 0 0 0 0 0 0 0 0 1 1 1 0 1 2 4 5 6 5 4 2 2 3 3 1 0 0 0
2 6 8 8 6 4 2 1 0 0 0 0 0 0 0 0 0 0 0 0 0 0 0 1 1 1 1 1 1 2 4 5 4 4 3 2 3 4 3 2 0 0 0
1 3 4 4 5 4 3 1 0 0 0 0 0 0 0 0 1 1 1 1 1 1 1 2 2 2 2 2 2 3 5 4 2 1 2 1 2 4 4 2 0 0 0
0 0 1 1 3 4 3 2 1 1 1 1 0 1 1 1 2 2 2 2 2 2 3 3 4 3 3 3 3 5 7 5 3 1 1 2 2 4 3 1 0 0 0
1 0 0 0 1 3 3 3 2 2 2 1 1 2 2 2 2 2 3 4 4 3 3 4 4 4 3 3 4 6 9 7 4 3 3 4 5 4 4 3 1 0 0
1 1 0 0 0 2 3 3 3 3 3 2 2 3 4 3 2 2 3 5 4 4 3 4 4 4 3 3 3 6 7 6 4 4 4 6 7 6 5 4 2 0 0
1 1 0 0 1 3 3 2 4 3 2 2 2 4 4 3 2 2 2 4 4 4 4 4 4 3 3 3 3 4 4 4 3 3 5 7 7 6 5 4 2 0 0
0 1 1 2 4 6 5 3 3 2 1 1 2 3 3 3 3 3 3 3 3 4 3 3 3 3 3 4 4 3 3 3 3 3 5 7 6 4 4 3 2 1 1
1 2 4 5 6 6 7 6 3 1 1 2 2 2 2 3 3 3 3 3 3 3 3 3 3 3 4 5 4 4 3 3 3 4 6 8 7 4 2 1 1 2 2
4 5 6 6 5 5 6 7 4 2 2 2 2 1 1 3 3 3 3 3 3 3 4 4 3 3 4 4 4 4 3 3 2 4 6 8 7 5 2 1 1 1 2
7 7 5 4 5 4 5 5 3 1 1 2 2 1 1 2 3 3 3 3 3 4 5 4 2 1 2 3 3 3 3 3 3 4 7 9 7 5 4 4 3 2 2
12 10 5 3 4 5 4 4 3 2 1 3 3 2 2 1 2 3 3 3 4 4 4 2 1 1 1 2 3 3 4 6 6 6 8 9 7 6 7 7 6 5 5
19 16 9 3 4 6 5 4 4 3 3 4 3 4 5 3 2 3 3 3 4 2 1 1 1 1 2 2 2 3 6 8 8 7 7 7 7 8 8 7 7 6 6
27 23 15 9 6 5 5 5 6 6 5 4 3 5 6 5 4 4 3 3 3 1 0 0 0 1 2 2 1 2 6 9 9 8 7 6 5 6 7 9 9 8 7
34 31 24 18 13 7 4 5 7 7 5 5 5 7 8 7 6 6 5 4 3 3 2 1 1 1 2 3 2 2 4 7 8 9 9 7 5 4 5 10 13 12 10
41 38 31 26 20 12 5 5 7 7 5 5 9 12 12 10 9 8 7 6 5 6 7 7 5 5 5 5 4 3 3 3 4 6 8 8 7 5 5 7 13 15 14
45 40 33 30 26 17 10 7 7 8 7 7 13 18 17 15 13 10 9 9 8 9 11 13 12 11 9 7 7 6 4 2 2 3 5 7 8 9 7 7 10 14 15
41 37 35 34 31 23 14 8 8 11 10 9 13 20 20 18 15 13 11 11 11 10 12 15 17 16 13 9 7 6 5 3 4 4 5 7 11 11 10 9 11 13 15
33 34 37 38 34 27 19 12 10 11 10 9 14 20 20 18 17 16 15 15 14 12 14 16 19 19 16 11 8 6 6 6 7 7 6 8 13 13 11 11 12 13 14
29 33 39 40 36 29 21 15 11 10 8 9 16 20 18 17 19 20 20 19 16 14 16 18 20 21 18 13 10 8 8 10 10 9 8 9 12 13 12 12 13 14 14

GEFSSE_con_prob3kmehi_246.txt.gz
EHI
0 1 2 2 1 0 0 0 0 0 1 0 0 0 0 1 2 3 3 1 1 4 6 7 7 6 6 6 5 4 4 6 7 6 6 6 5 4 4 3 1 0 0
1 2 3 3 2 1 0 0 0 0 1 0 0 1 2 3 4 5 4 1 1 4 8 9 7 6 7 7 5 5 5 6 6 5 4 4 4 3 3 3 1 0 0
1 2 4 5 4 3 2 1 1 1 1 0 1 3 5 6 6 6 4 2 1 3 7 8 6 6 7 6 5 6 6 6 6 4 2 2 3 3 3 3 2 1 1
2 3 5 7 6 5 4 3 2 1 0 0 2 4 6 6 5 4 4 3 1 1 3 5 5 5 5 6 6 6 7 6 5 2 1 1 2 3 3 3 2 1 2
2 3 5 8 8 7 6 4 2 1 0 1 2 4 5 4 3 3 3 2 1 0 1 2 4 4 4 5 5 5 5 4 3 1 0 1 1 3 4 3 2 2 3
2 2 6 9 8 7 6 4 2 1 0 1 2 3 3 3 2 3 3 2 2 1 1 2 3 3 2 3 4 4 4 2 1 0 0 0 1 2 4 3 1 1 2
1 2 5 7 7 7 6 5 3 1 0 1 2 3 3 2 1 2 3 3 2 2 3 3 3 2 1 2 3 4 3 1 0 0 0 0 0 1 3 2 1 0 1
2 2 4 5 6 6 6 5 3 1 0 0 1 1 2 2 1 2 2 2 3 3 4 4 4 2 2 3 3 4 3 1 0 0 0 0 0 1 2 1 0 0 0
2 2 2 4 4 4 5 4 3 1 0 0 0 1 2 3 3 2 3 3 4 4 5 5 5 5 4 4 5 5 5 3 1 0 0 1 1 2 2 1 1 0 0
2 1 3 4 2 1 2 2 2 1 0 0 0 2 3 3 3 3 4 5 5 4 4 5 6 6 6 6 7 7 6 4 2 1 0 1 2 3 3 3 2 1 0
2 2 3 3 1 0 0 1 1 0 0 0 1 2 2 2 2 3 5 6 5 4 4 5 5 5 5 6 7 6 4 4 3 1 0 2 5 6 5 4 4 2 1
3 2 1 1 0 0 0 0 0 0 0 0 1 2 2 1 1 2 4 5 4 4 5 5 4 4 4 4 4 4 3 3 3 1 2 5 8 8 7 6 5 4 3
2 1 0 0 0 0 0 0 0 0 0 0 1 2 2 1 0 1 2 3 3 3 4 4 3 3 3 3 3 3 3 3 3 2 3 6 9 8 7 7 6 5 4
2 1 0 0 0 0 0 0 0 0 0 1 2 2 2 1 0 0 0 1 2 3 3 3 3 2 2 2 2 3 3 3 3 2 3 6 8 7 6 6 7 6 4
1 1 0 0 0 0 0 0 0 0 1 2 2 1 1 1 0 0 1 2 3 3 3 2 1 1 1 1 1 1 2 2 2 1 2 5 7 7 5 5 6 5 5
2 2 2 1 0 0 0 0 0 0 1 2 2 1 0 0 0 1 2 3 3 2 1 1 0 0 0 0 0 1 1 1 1 1 2 3 6 6 5 4 5 5 5
4 4 3 2 0 0 0 0 0 0 0 1 1 0 0 0 0 2 3 2 1 1 0 0 0 0 0 0 1 2 2 1 1 2 2 3 4 5 5 5 6 6 6
7 5 3 1 0 0 0 0 0 0 0 0 0 0 0 0 0 1 2 1 0 0 0 0 0 0 0 0 1 2 2 1 1 2 2 2 2 2 3 5 7 7 7
7 5 3 1 1 0 0 0 0 0 0 0 0 0 0 0 0 0 0 0 0 0 0 0 0 0 0 0 1 2 2 1 0 1 1 1 1 1 1 3 6 8 9
5 5 4 3 3 1 0 0 0 0 0 0 1 0 0 0 0 0 0 0 0 0 0 0 0 0 0 0 1 2 2 1 0 0 0 0 0 1 1 2 4 6 7
7 7 7 6 5 3 1 0 0 0 0 0 0 0 1 1 0 0 0 0 0 0 0 0 0 0 0 0 0 1 1 0 0 0 0 0 0 1 2 2 2 3 4
14 13 10 8 6 3 1 0 0 0 0 0 0 0 1 2 1 1 1 0 0 0 0 0 0 1 1 0 0 0 0 0 0 0 0 0 0 0 1 1 1 1 1
20 17 12 9 6 5 2 1 0 0 0 0 0 0 1 2 2 2 2 2 1 2 2 2 1 1 1 0 0 0 0 0 0 0 0 0 0 0 0 1 2 2 1
22 18 12 8 8 7 6 4 1 0 0 0 0 0 0 1 2 3 4 5 4 4 4 4 2 1 1 1 1 0 0 0 0 0 0 0 0 0 0 1 2 2 1
25 21 14 10 8 8 9 8 4 1 1 1 1 0 0 1 2 4 6 7 6 5 5 4 2 1 1 2 2 1 1 0 0 0 0 0 0 0 0 0 1 1 0
30 25 18 12 8 7 9 9 6 2 2 2 1 0 0 1 2 5 7 8 7 6 5 4 3 2 2 4 3 2 2 1 0 0 0 0 0 0 0 1 1 1 0

GEFSSE_con_prob3kmehi_252.txt.gz
EHI
0 0 2 5 6 6 6 5 4 3 3 3 3 3 3 3 2 2 3 4 2 1 2 4 5 4 4 5 6 4 4 5 5 3 2 1 1 2 1 0 0 0 0
0 0 2 4 5 5 4 4 3 3 2 1 1 1 2 2 2 2 2 2 1 1 2 4 3 2 4 6 6 5 5 6 6 4 3 1 1 2 1 1 0 0 0
0 0 1 2 3 2 2 3 3 2 1 0 0 0 0 1 2 2 2 3 2 1 2 3 1 1 3 5 5 4 5 7 7 5 3 1 1 2 2 1 0 0 0
0 0 0 1 1 1 2 4 4 2 0 0 0 0 0 1 2 3 3 4 4 2 2 2 2 1 3 5 4 3 4 7 7 5 3 1 2 3 3 1 0 0 0
0 0 1 2 2 2 3 5 5 3 1 0 0 0 0 1 3 4 5 5 4 3 2 2 2 2 3 4 4 4 5 7 7 3 1 1 2 3 3 1 0 0 0
0 0 3 6 7 6 6 5 4 2 1 0 0 0 1 3 4 4 4 5 4 3 1 1 1 2 2 2 4 5 7 8 5 1 0 0 1 2 2 2 1 0 0
1 1 4 8 10 8 6 3 1 1 1 0 0 1 2 3 4 4 3 2 2 2 1 0 1 1 0 1 3 6 8 7 2 0 0 0 1 2 1 1 1 0 0
2 3 5 7 9 8 5 2 0 0 0 0 1 1 2 3 3 2 1 0 1 1 0 1 1 1 1 1 3 5 6 3 1 0 0 0 1 1 1 0 0 0 0
3 4 5 6 6 5 2 1 1 0 0 0 0 1 1 2 2 1 1 1 1 1 1 2 2 2 2 3 4 4 3 1 0 0 0 0 0 0 0 0 0 0 0
3 3 4 5 3 2 1 2 2 1 0 0 0 1 1 1 1 1 2 3 3 2 3 3 3 3 4 3 4 4 3 1 0 0 0 0 0 0 0 0 0 0 0
2 2 3 3 1 0 1 2 2 1 0 0 0 1 1 1 0 1 2 4 4 3 3 3 3 3 4 3 4 4 2 1 1 2 1 1 0 1 1 1 1 0 0
1 1 1 1 1 0 0 1 1 0 0 0 0 1 1 0 0 0 2 3 3 2 2 2 2 2 2 2 3 2 1 1 1 2 2 2 2 2 2 2 2 1 1
0 0 0 0 0 0 0 0 0 0 0 0 0 0 0 0 0 0 1 1 1 1 1 1 0 1 1 1 1 1 0 0 1 1 1 2 2 2 1 1 2 3 3
0 0 0 0 0 0 0 0 0 0 0 0 0 0 0 0 0 0 0 0 0 0 0 0 0 0 0 0 0 1 0 0 0 0 0 1 2 2 2 1 2 3 4
0 0 0 0 0 0 0 0 0 0 0 0 0 0 0 0 0 0 1 1 0 0 0 0 0 0 0 0 0 0 0 1 1 1 1 1 3 4 4 3 2 2 3
0 0 0 0 0 0 0 0 0 0 0 1 1 0 0 0 0 1 1 1 0 0 0 0 0 0 0 0 0 0 1 2 2 2 2 3 4 5 5 4 3 3 3
0 0 0 0 0 0 1 1 1 0 0 1 1 0 0 0 0 1 1 1 0 0 0 0 0 0 0 0 0 0 2 3 3 3 2 2 3 3 3 3 4 4 4
0 0 0 0 0 0 0 0 0 0 0 1 1 0 0 0 0 0 0 0 0 0 0 0 0 0 0 0 0 0 1 2 2 1 1 1 1 1 1 3 5 6 6
0 0 0 0 0 0 0 0 0 0 0 0 0 0 0 0 0 0 0 0 0 0 0 0 0 0 0 0 0 0 0 1 1 0 0 0 0 0 0 2 4 6 6
0 0 0 0 0 0 0 0 0 0 0 0 0 0 0 0 0 0 0 0 0 0 0 0 0 0 0 0 0 0 0 0 0 0 0 0 0 0 0 0 2 3 3
0 0 0 0 0 0 0 0 0 0 0 0 0 0 0 0 0 0 0 0 0 0 0 0 0 0 0 0 0 0 0 0 0 0 0 0 0 0 0 0 0 1 1
1 1 1 0 0 0 0 0 0 0 0 0 0 0 0 0 0 0 0 0 0 0 0 0 0 0 0 0 0 0 0 0 0 0 0 0 0 0 0 0 0 0 0
3 2 1 0 0 0 0 0 0 0 0 0 0 0 0 0 0 0 0 0 0 0 0 0 0 0 0 0 0 0 0 0 0 0 0 0 0 0 0 0 0 0 0
5 3 1 0 0 0 0 0 0 0 0 0 0 0 0 0 0 0 0 0 0 0 0 0 1 1 0 0 0 0 0 0 0 0 0 0 0 0 0 0 0 0 0
5 3 1 0 0 0 0 0 0 0 0 0 0 0 0 0 0 0 0 0 0 0 0 1 1 1 0 0 0 0 0 0 0 0 0 0 0 0 0 0 0 0 0
5 4 2 1 0 0 0 0 0 0 0 0 0 0 0 0 0 0 0 0 0 0 1 1 1 0 0 0 0 0 0 0 0 0 0 0 0 0 0 0 0 0 0

GEFSSE_con_prob3kmehi_258.txt.gz
EHI
0 1 2 3 1 1 2 1 0 2 6 8 7 5 3 2 3 4 6 6 5 2 2 1 0 0 1 3 3 2 1 1 1 1 0 0 1 0 0 0 0 1 1
0 1 2 3 2 1 1 1 1 3 5 7 7 5 4 4 4 4 5 5 4 3 2 1 0 1 2 3 3 2 1 1 1 1 1 0 1 0 0 0 0 0 1
0 1 2 3 3 1 1 0 1 2 3 4 4 4 4 4 4 4 4 4 4 5 4 1 0 1 3 4 3 2 1 2 2 1 1 0 0 0 0 0 0 0 0
1 1 2 3 3 2 0 0 0 1 1 1 1 1 2 3 3 3 3 3 4 6 4 1 1 1 3 4 3 2 2 3 2 1 0 0 0 0 0 0 0 0 0
2 1 2 3 3 1 0 0 0 0 0 0 0 0 1 1 1 1 2 3 4 5 3 1 0 1 2 4 3 2 3 3 2 1 0 0 0 0 0 0 0 0 0
2 1 2 3 2 1 0 0 0 0 1 1 0 0 0 0 0 0 1 2 4 3 1 0 0 0 1 2 2 2 3 3 2 1 0 0 1 0 0 0 0 0 0
1 0 1 2 1 0 0 0 0 1 2 2 1 1 1 0 0 0 2 3 4 3 1 0 0 0 0 0 1 2 3 3 1 0 0 0 1 0 0 0 0 0 0
0 0 0 0 0 0 0 0 0 1 2 3 3 2 2 1 0 0 2 4 3 2 1 0 0 0 0 0 0 1 2 1 0 0 0 1 1 1 0 0 0 0 0
0 0 0 0 0 0 1 1 0 0 1 2 3 3 3 1 1 1 2 3 2 2 1 1 1 1 1 1 1 1 1 1 0 0 0 1 2 1 0 0 0 0 0
0 0 0 0 0 1 1 0 0 0 0 1 2 3 3 2 2 2 2 3 3 2 2 2 2 2 2 2 2 2 2 2 1 0 0 1 1 1 0 0 0 0 0
0 0 0 0 0 0 0 0 0 0 0 1 1 1 2 1 1 1 1 2 2 2 3 3 3 3 3 3 3 3 3 3 2 1 1 1 1 0 0 0 0 0 0
1 1 0 0 0 0 0 0 0 0 0 1 0 0 0 0 0 0 0 1 1 1 2 3 3 3 3 3 3 3 3 3 2 2 3 3 2 0 0 0 0 0 0
2 2 1 0 0 0 0 0 0 0 0 0 0 0 0 0 0 0 1 1 2 2 3 3 3 3 2 3 3 3 2 1 1 2 3 3 1 1 1 1 0 0 0
3 2 1 0 0 0 0 0 0 0 1 1 0 0 0 0 0 1 3 4 4 4 3 3 2 1 1 1 2 2 2 1 1 2 3 2 1 2 2 2 1 1 1
2 1 0 0 0 0 0 0 0 1 2 1 0 0 0 0 1 3 5 6 6 4 2 1 1 0 0 0 0 1 1 2 2 3 3 3 3 3 3 3 3 3 2
1 0 0 0 0 0 0 0 0 1 2 1 0 0 0 1 1 3 5 5 4 2 1 0 0 0 0 0 0 1 2 3 3 3 3 3 3 2 1 2 3 3 2
0 0 0 0 0 0 0 0 0 1 1 0 0 0 1 2 3 3 3 2 1 0 0 0 0 0 0 0 1 2 3 3 3 3 3 2 2 1 1 2 2 1 1
2 2 1 0 0 0 0 0 0 0 0 0 0 1 2 3 3 3 2 1 0 0 0 0 0 0 0 1 2 3 3 3 3 3 2 1 0 0 2 4 3 1 0
4 5 4 2 1 1 1 1 0 0 0 0 0 1 2 3 3 2 1 0 0 0 0 0 0 0 0 1 2 3 3 3 2 1 1 1 0 0 2 4 3 2 1
6 7 8 7 5 3 2 1 0 0 0 0 0 1 2 3 2 1 0 0 0 0 0 0 0 0 0 0 1 1 2 2 1 0 0 1 0 0 0 1 2 3 3
8 9 10 9 8 5 3 1 0 0 0 0 0 0 1 1 1 1 0 0 0 0 0 0 0 0 0 0 0 0 1 1 0 0 0 0 0 0 0 0 1 3 3
8 9 8 8 7 5 2 0 0 0 0 0 0 0 0 0 0 0 0 0 0 0 0 0 0 0 0 0 0 0 0 1 1 0 0 0 0 0 0 0 1 2 2
7 7 6 7 7 5 3 1 0 0 0 0 0 0 0 0 0 0 0 0 0 0 0 1 0 0 0 0 0 0 0 1 1 1 0 0 0 0 0 0 0 1 1
6 6 7 8 9 8 6 2 0 0 0 0 0 0 0 1 2 1 0 0 0 0 0 0 0 1 2 1 0 0 0 1 2 2 1 0 0 0 0 0 0 1 1
7 8 9 12 13 12 9 5 2 0 1 1 1 0 1 2 3 2 1 0 0 0 0 0 1 2 3 3 2 2 1 1 2 3 2 1 1 1 1 0 1 2 2
8 10 12 15 16 14 11 8 3 1 2 2 2 1 2 3 3 2 1 0 0 0 0 0 1 3 5 4 3 3 2 3 4 4 3 2 2 2 2 1 2 2 2